[Date Prev][Date Next][Thread Prev][Thread Next] - [Date Index][Thread Index][Author Index]
2 Line ISS Keps 7-31
- Subject: [sarex] 2 Line ISS Keps 7-31
- From: "Dave Larsen PhD" <doc@xxxxxxxxxxx>
- Date: Tue, 31 Jul 2001 02:16:43 -0700
ISS
1 25544U 98067A 01212.18502066 .00016588 00000-0 22422-3 0 2800
2 25544 51.6388 226.4290 0011696 320.0063 120.9003 15.57813857153953
----
Via the sarex mailing list at AMSAT.ORG courtesy of AMSAT-NA.
To unsubscribe, send "unsubscribe sarex" to Majordomo@amsat.org
AMSAT Home